Regional Weather Roundup
Issued by NWS

Home | Current Version | Previous Version | Graphics & Text | Print | Product List | Glossary On
Versions: 1 2 3 4 5 6 7 8 9 10 11 12 13 14 15 16 17 18 19 20 21 22 23 24 25 26 27 28 29 30 31 32 33 34 35 36 37 38 39 40 41 42 43 44 45 46 47 48 49 50
000
ASUS45 KBOU 052307
RWRCO

WEATHER ROUNDUP FOR COLORADO
NATIONAL WEATHER SERVICE DENVER/BOULDER CO
400 PM MST THU MAR 05 2015

NOTE: "FAIR" INDICATES FEW OR NO CLOUDS BELOW 12000 FEET WITH NO
SIGNIFICANT WEATHER AND/OR OBSTRUCTIONS TO VISIBILITY.

COZ001>005-013-030-031-060000-
...NORTHWEST COLORADO...

CITY           SKY/WX    TMP DP  RH WIND       PRES   REMARKS
CRAIG          MOSUNNY   36  15  42 E5        30.34S
HAYDEN         MOSUNNY   34  10  37 CALM      30.33S
MEEKER         SUNNY     42  16  34 S8        30.31S
MOUNT WERNER   NOT AVBL
STEAMBOAT SPGS MOSUNNY   33   8  35 CALM      30.33S
WALDEN         MOSUNNY   30  12  47 S15       30.27R WCI  19
$$

COZ006>008-011-060000-
...WEST CENTRAL VALLEYS...

CITY           SKY/WX    TMP DP  RH WIND       PRES   REMARKS
GRAND JUNCTION SUNNY     44  16  32 W3        30.37R
MONTROSE       SUNNY     44  15  31 N3        30.36S
EAGLE          SUNNY     41  10  28 SW12G18   30.33R
RIFLE          SUNNY     43  13  29 W9        30.35S
DELTA          SUNNY     48  13  25 CALM      30.36S
NUCLA          SUNNY     43  12  28 CALM      30.38S
$$

COZ017>023-064>068-060000-
...SOUTHWEST COLORADO...

CITY           SKY/WX    TMP DP  RH WIND       PRES   REMARKS
DURANGO        SUNNY     40  15  36 E12       30.31S
CORTEZ         SUNNY     45  21  38 W9        30.34S
PAGOSA SPRINGS SUNNY     40   1  19 SW7       30.32S
TELLURIDE      SUNNY     34  -5  19 W13       30.35S WCI  25
WOLF CREEK PAS SUNNY     18  10  73 SW13      30.34R WCI   4
$$

COZ009-010-012-014-032>034-037-058>063-060000-
...CENTRAL COLORADO...

CITY           SKY/WX    TMP DP  RH WIND       PRES   REMARKS
ASPEN          SUNNY     33  10  38 NW8       30.31R WCI  26
BUENA VISTA    MOSUNNY   39   8  28 NW9       30.22R
COPPER MTN     MOSUNNY   23   5  46 W14G25    30.27R WCI  11
BERTHOUD PASS  NOT AVBL
COTTONWOOD PAS MOSUNNY   36  -8  15 W14G29    30.24R
GUNNISON       SUNNY     21   9  58 NE3       30.37S
KREMMLING      MOSUNNY   32  12  43 SE3       30.32S
LEADVILLE      SUNNY     24   4  42 NW16G28   30.26R WCI  11
SALIDA         MOSUNNY   41   7  24 SW13G23   30.30R
SUNLIGHT       SUNNY     25  18  74 CALM        N/A
WILKERSON PASS MOSUNNY   23   1  39 NW13G20   30.25R WCI  11
$$

COZ069>075-060000-
...SAN LUIS VALLEY/SANGRE DE CRISTO MOUNTAINS...

CITY           SKY/WX    TMP DP  RH WIND       PRES   REMARKS
ALAMOSA        SUNNY     37  11  34 W9        30.29S
LA VETA PASS   SUNNY     30   1  29 S17G26    30.23R WCI  18
SAGUACHE       MOSUNNY   32  10  40 S5        30.29S WCI  27
$$

COZ035-036-038>040-060000-
...NORTHERN COLORADO FRONT RANGE...

CITY           SKY/WX    TMP DP  RH WIND       PRES   REMARKS
DENVER INTL AP PTSUNNY   36  21  54 N6        30.20R
DMNS CITY PARK   N/A     35  16  45 NW3G9     30.21R
AURORA         NOT AVBL
FRONT RANGE AP PTSUNNY   36  27  69 N5        30.20R
ERIE MUNI ARPT SUNNY     30  13  48 NW5       30.22S WCI  26
BOULDER MUN AP SUNNY     32  10  40 CALM      30.21S
CENTENNIAL     PTSUNNY   41  10  28 NE3       30.18R
BROOMFIELD     PTSUNNY   28  10  47 NW6       30.21R WCI  22
FORT COLLINS   SUNNY     37  18  44 CALM      30.23R
LONGMONT       SUNNY     39  13  34 CALM      30.24R
$$

COZ041-046-047-076>085-087-088-060000-
...PIKES PEAK/PALMER DIVIDE AND SOUTHERN FOOTHILLS...

CITY           SKY/WX    TMP DP  RH WIND       PRES   REMARKS
COLO. SPRINGS  PTSUNNY   34  13  41 E6        30.21R WCI  29
A. F. ACADEMY  NOT AVBL
ELLICOTT       NOT AVBL
FALCON         MOSUNNY   37  12  36 CALM      30.21R
FORT CARSON    NOT AVBL
LIMON          SUNNY     30  20  66 SE6       30.22R WCI  24
MONUMENT HILL  MOSUNNY   37   5  25 CALM      30.18R
TRINIDAD       MOSUNNY   46  14  27 CALM      30.20R
$$

COZ042>045-048>051-090-091-060000-
...NORTHEAST COLORADO...

CITY           SKY/WX    TMP DP  RH WIND       PRES   REMARKS
GREELEY ARPT   MOSUNNY   39  21  48 W9        30.21R
AKRON          MOSUNNY   44   6  21 VRB5      30.20S
BURLINGTON     MOSUNNY   43  14  31 SW16      30.24R
WRAY           PTSUNNY   47  12  24 NW13      30.22R
STERLING       MOSUNNY   46  16  29 NW7       30.20S
HOLYOKE        NOT AVBL
FORT MORGAN    MOSUNNY   45   3  17 SE3       30.22R
$$

COZ086-089-092>099-060000-
...SOUTHEAST COLORADO...

CITY           SKY/WX    TMP DP  RH WIND       PRES   REMARKS
PUEBLO         MOSUNNY   44  20  38 E5        30.20R
LA JUNTA       MOSUNNY   47  19  33 E12       30.21F
LAMAR          SUNNY     47   8  20 S7        30.23F
SPRINGFIELD      N/A     44  14  29 S14       30.25R
$$



USA.gov is the U.S. government's official web portal to all federal, state and local government web resources and services.